Temp
19 20 20 20 20 21 22 22 22 22 23 23 23 23 24 24 24 24 24 24 24 24 24 24 24 24 24 24 24 24 25 26 26 25 25 27 27 27 27 27 27 27 27 27 27 28 28 28 27 27 27 26 25 25 25 24 24 24 23 21 20 20 20 21 21 20 20 19 18 18 18 19 19 19 20 19 18 18 18 17 17 18 17 17 18 18 18 18
19 20 20 20 20 21 21 22 22 23 23 23 23 23 24 24 24 25 25 25 25 25 25 25 24 24 24 24 24 25 25 25 25 25 26 27 27 27 27 27 27 27 27 27 27 27 27 27 27 27 25 25 24 24 24 23 23 22 22 21 20 21 21 22 21 20 20 19 18 19 18 19 19 20 20 19 18 18 18 17 18 18 18 18 18 18 18 18
19 20 20 20 21 21 21 22 23 23 23 23 23 23 24 24 24 25 25 25 25 25 25 25 25 24 24 24 24 25 24 25 26 27 28 28 28 28 28 28 28 27 27 27 27 27 27 27 27 26 25 24 23 23 23 23 22 21 21 21 20 21 22 22 22 21 20 19 18 18 18 19 20 20 20 18 18 18 17 17 18 18 18 18 18 18 18 18
19 20 20 20 21 21 22 22 23 23 23 23 23 23 24 24 24 25 25 25 25 25 25 25 25 25 24 24 24 24 24 25 27 28 28 28 28 28 28 28 28 28 28 28 28 28 27 27 27 26 25 24 23 23 22 22 22 21 21 20 20 21 22 22 23 21 21 20 19 19 19 19 20 20 19 18 18 18 18 18 18 18 18 18 18 18 18 18
19 20 20 20 21 21 22 22 23 23 23 24 24 24 24 24 24 25 25 25 25 25 25 25 25 25 24 24 25 24 25 26 27 28 29 29 28 28 28 29 29 28 28 28 27 28 27 27 27 25 24 23 23 23 21 21 21 21 20 20 21 22 22 22 23 22 21 21 21 20 20 20 20 20 19 19 18 18 18 18 18 18 18 18 18 18 18 17
19 20 20 20 21 21 22 22 23 23 24 24 24 24 24 24 24 25 25 25 25 25 25 25 25 25 25 25 24 24 26 26 27 29 29 29 29 28 29 29 29 28 28 28 28 28 27 26 26 25 23 22 22 22 21 20 21 21 20 21 22 22 22 22 22 22 22 21 21 20 20 20 19 19 19 19 18 18 19 19 18 18 18 18 18 18 18 18
19 20 20 20 21 21 22 22 23 23 24 24 24 24 24 24 25 25 25 25 25 25 26 25 25 25 25 24 24 24 26 27 28 29 29 29 29 29 28 28 28 29 29 28 28 27 26 25 25 24 23 22 22 21 21 21 21 22 21 21 22 22 22 23 22 22 21 21 20 20 20 19 19 18 18 18 18 19 19 18 18 18 18 18 18 18 18 17
20 20 20 20 21 21 22 22 23 23 24 24 25 25 25 24 25 25 25 25 25 25 25 25 25 25 25 24 25 26 27 28 30 29 30 30 29 29 28 28 29 29 29 28 28 27 26 26 25 24 23 23 22 22 22 22 22 22 21 21 23 22 22 22 22 21 21 21 20 20 19 19 19 19 18 18 18 19 19 18 18 18 18 18 18 18 17 17
20 20 20 20 21 21 22 22 23 23 24 25 25 25 25 25 25 25 25 25 25 25 25 25 25 25 25 24 25 27 28 30 30 30 30 30 29 29 28 28 29 28 28 28 28 28 27 26 26 25 24 23 23 22 22 22 22 22 22 22 23 23 22 22 21 21 21 20 20 19 18 18 19 19 18 18 19 19 19 19 18 18 18 18 19 18 17 17
20 20 20 20 21 21 22 22 23 23 24 25 25 25 25 25 25 25 25 25 25 25 25 24 24 24 24 24 25 27 30 30 30 30 30 29 29 30 29 28 29 29 28 28 28 28 27 26 25 25 24 23 23 22 22 23 23 23 23 23 23 23 22 22 21 21 20 20 20 19 18 19 19 19 18 18 19 19 19 19 18 19 19 18 19 18 17 17
20 20 20 20 21 21 22 22 22 23 24 25 25 25 25 25 25 25 25 25 25 25 24 24 24 24 23 24 26 28 30 31 30 30 30 29 29 30 29 29 29 29 28 28 27 28 27 26 25 26 25 24 24 23 23 23 23 24 24 23 23 22 22 22 21 21 20 20 19 19 19 19 20 19 18 19 19 19 19 19 18 19 19 19 19 18 17 16
19 20 20 20 21 22 22 22 23 23 24 25 26 26 25 25 26 26 26 26 26 25 25 24 24 24 23 24 26 29 31 31 31 30 30 30 30 29 29 29 30 29 29 28 27 28 28 27 27 26 25 24 24 23 23 24 23 23 23 22 22 22 22 22 21 21 21 20 20 21 20 19 19 19 19 19 19 19 19 19 19 19 19 19 19 18 17 17
19 20 20 21 21 22 22 22 23 23 24 25 26 26 26 26 26 26 26 26 26 26 25 24 24 24 24 26 29 30 31 31 31 30 30 30 29 29 29 29 30 29 29 28 27 28 28 28 27 26 25 24 24 23 24 24 23 23 23 22 21 21 21 22 22 22 21 20 21 22 20 18 19 19 19 19 19 19 19 19 19 19 18 19 18 18 18 17
19 20 20 21 21 22 22 22 23 24 25 26 26 26 27 27 27 27 27 26 26 26 25 24 24 24 25 28 30 31 31 31 31 31 30 29 30 29 29 29 29 29 29 28 28 28 28 28 27 26 25 24 24 24 24 23 23 22 22 22 21 20 20 22 22 22 21 21 21 22 20 18 19 19 19 20 19 19 19 19 19 18 18 19 18 18 18 17
19 20 20 20 21 22 22 22 23 24 25 26 26 27 27 27 27 27 27 27 27 26 25 25 24 24 26 29 30 31 31 31 31 31 30 30 30 29 29 29 29 29 29 28 28 28 28 27 27 25 24 24 24 24 23 23 23 22 21 21 20 20 20 21 22 22 22 22 22 22 20 19 19 19 20 20 19 19 19 19 19 19 18 19 19 18 18 17
19 20 20 20 21 22 22 22 23 24 25 26 26 28 28 28 28 28 28 27 27 26 25 25 25 24 27 29 30 31 31 31 31 31 31 31 30 29 29 29 28 28 28 28 28 28 28 27 26 25 24 24 24 23 22 22 22 21 21 20 20 21 20 21 22 22 22 22 22 22 20 19 19 20 20 20 20 19 19 19 19 19 18 19 19 18 18 17
18 19 20 20 21 22 23 23 23 24 26 26 27 28 28 28 28 28 28 27 27 26 25 25 24 24 27 29 30 30 31 31 31 30 30 31 30 29 29 28 28 27 27 27 28 27 27 26 25 25 25 23 23 23 22 20 20 21 21 21 21 21 21 21 22 22 23 22 21 21 21 20 20 20 20 20 20 19 19 19 19 19 18 19 19 18 18 18
18 19 20 20 21 22 22 23 23 25 26 27 27 28 28 28 28 28 27 27 26 25 25 25 24 25 26 29 29 30 31 31 31 31 30 30 30 30 29 28 27 27 27 27 27 26 25 25 25 24 24 23 23 23 22 20 21 21 21 21 21 21 21 21 22 22 22 22 21 21 21 20 20 20 20 20 20 20 19 19 19 19 18 18 18 18 18 18
17 18 20 20 21 22 23 23 24 24 26 27 27 28 28 28 28 28 27 26 26 26 27 26 26 26 27 28 29 30 32 32 31 30 30 30 30 30 30 29 28 27 27 27 26 26 25 25 24 24 23 23 24 24 23 22 22 22 22 22 21 21 21 22 23 23 22 22 21 21 21 20 20 20 20 20 20 20 20 20 19 19 19 18 18 18 18 18
17 18 19 20 20 22 23 23 24 25 26 27 27 27 27 26 26 26 26 26 26 26 27 26 26 27 28 29 30 31 32 31 31 30 30 30 30 29 29 29 28 28 27 26 26 25 25 25 24 24 24 24 25 24 24 23 23 23 22 22 22 21 21 23 24 23 23 22 21 21 21 20 20 20 20 21 21 20 20 20 19 19 19 18 18 18 18 18
17 18 19 20 20 22 23 23 24 25 25 26 26 26 25 25 24 24 24 25 25 25 26 26 27 27 28 29 31 32 31 31 31 30 30 30 30 29 28 28 28 27 26 26 26 25 25 24 24 25 25 25 24 24 24 23 23 23 22 22 22 22 22 23 24 24 24 23 21 21 21 20 21 20 21 21 21 21 20 20 19 19 19 19 18 18 18 18
17 17 18 19 20 21 23 23 24 25 25 25 25 25 24 25 25 25 25 24 25 26 26 26 27 27 28 29 30 32 31 31 31 30 30 30 29 29 28 28 28 27 26 26 25 25 25 24 24 26 26 25 24 23 24 23 23 23 22 21 21 22 23 23 24 24 24 23 22 21 21 20 21 21 21 21 21 21 21 21 20 19 19 19 19 18 18 18
17 17 18 19 20 21 23 23 24 25 25 24 24 24 24 24 25 25 25 24 24 26 26 27 27 27 29 30 31 32 31 30 30 30 30 30 29 29 28 28 28 27 26 26 26 24 23 24 26 26 25 25 24 23 24 23 23 23 22 22 21 23 23 22 23 24 23 23 22 21 21 21 21 21 21 22 22 22 21 21 21 20 19 19 19 19 18 18
17 17 17 19 20 21 22 23 24 24 24 23 23 23 23 24 24 24 24 24 24 26 27 28 29 29 30 31 32 32 31 30 30 30 30 30 30 29 29 28 28 27 27 27 26 25 24 26 27 26 25 25 24 23 23 24 23 22 23 22 22 23 23 23 23 23 23 23 22 22 21 21 21 21 21 22 22 22 22 21 21 20 19 19 19 19 19 18
17 17 17 18 19 20 22 23 23 22 23 23 23 23 23 24 24 24 24 24 24 26 28 29 30 31 31 32 32 31 31 31 31 31 31 31 30 29 29 28 27 28 28 26 26 26 26 27 27 26 26 25 24 23 23 24 23 22 23 24 24 24 24 23 23 23 22 21 22 23 20 20 21 21 22 22 22 22 22 21 21 20 19 19 19 19 19 18
17 17 17 18 19 20 22 23 21 21 22 23 23 23 23 24 24 24 24 23 23 26 28 29 30 31 31 31 31 31 30 30 32 31 31 31 31 30 29 28 28 28 28 27 27 26 27 27 27 27 27 25 25 24 24 25 23 21 23 24 24 25 24 23 23 22 21 21 23 23 21 20 21 21 22 22 22 23 22 21 21 20 19 19 19 19 19 18
17 17 17 18 19 19 20 21 19 20 22 22 23 23 23 24 24 24 24 22 22 26 28 28 29 30 31 31 32 30 28 29 31 31 32 31 31 31 29 28 28 28 29 28 25 25 27 27 27 27 27 26 26 25 25 25 24 22 24 24 24 25 25 24 23 22 22 22 22 23 22 20 20 21 22 22 22 22 22 21 20 19 19 19 19 19 19 18
17 17 17 18 19 18 18 18 17 18 21 22 22 23 24 25 24 24 23 20 23 28 29 29 30 30 30 31 31 31 29 30 31 31 32 32 31 31 30 29 29 29 29 27 24 25 28 27 27 28 27 26 26 26 26 26 25 25 26 24 24 25 24 24 23 22 22 22 21 21 22 21 20 21 22 22 22 22 22 21 21 19 19 19 19 19 19 18
17 17 17 18 19 19 18 17 16 18 21 22 22 23 24 24 24 24 22 21 25 28 29 29 30 30 30 30 30 31 31 30 30 31 31 32 31 31 30 29 30 29 29 28 26 27 28 28 28 28 27 26 27 27 27 27 26 26 26 24 24 24 23 23 23 22 21 21 20 21 21 20 20 21 21 21 21 22 22 21 21 20 19 19 19 19 19 18
17 17 17 18 18 19 18 19 20 21 22 21 22 24 25 24 24 23 21 22 25 28 29 29 29 30 30 30 30 30 30 30 31 31 31 31 31 31 31 30 30 29 29 29 28 28 28 28 28 28 28 28 28 27 27 27 27 26 25 24 24 23 23 23 22 21 21 20 20 21 21 21 20 21 21 21 22 23 22 21 21 20 20 19 19 19 19 18
17 18 18 18 18 18 17 19 22 22 21 21 22 24 24 24 24 21 21 24 26 27 29 29 29 30 30 29 30 30 30 30 31 30 30 30 30 30 30 29 29 28 27 27 27 27 28 28 28 29 29 28 28 27 27 27 26 26 25 23 22 22 22 22 21 21 20 20 21 21 21 21 20 21 22 22 23 23 23 22 21 21 20 20 20 20 19 19
17 18 19 19 19 18 18 20 23 22 21 21 21 23 24 23 22 20 22 25 24 26 29 29 29 30 29 29 29 30 30 30 30 30 30 30 29 29 29 28 28 25 23 24 25 26 27 27 27 28 29 29 28 26 26 26 26 26 25 22 21 21 21 21 20 20 20 20 21 21 21 21 20 22 24 24 25 24 23 23 22 21 20 20 20 20 19 19
17 18 20 20 19 20 21 22 22 21 21 20 21 24 24 22 21 21 23 24 24 26 29 29 29 30 29 28 29 30 30 30 30 30 30 29 28 29 29 29 29 26 23 23 23 23 24 26 27 28 28 28 28 26 24 25 26 26 24 22 21 20 20 20 20 20 20 20 21 21 21 21 21 23 25 25 25 25 24 24 23 22 21 20 20 20 20 19
18 18 19 21 21 22 23 23 22 22 21 20 22 24 23 21 21 22 23 25 26 28 29 28 29 30 29 28 29 30 29 29 30 30 29 29 27 28 29 29 29 28 27 24 23 22 22 23 26 27 27 28 28 27 25 25 25 24 24 23 22 21 20 20 20 20 20 20 21 21 21 21 21 23 26 25 24 24 24 24 23 22 21 21 21 21 20 19
18 18 19 21 22 23 24 23 22 22 20 21 23 23 21 21 22 22 24 26 27 28 28 29 30 29 28 29 30 31 29 29 30 30 29 29 27 28 29 29 29 29 28 24 23 23 22 22 27 28 28 29 28 27 27 26 24 23 24 23 22 22 22 20 20 20 20 20 20 21 21 21 22 24 25 24 24 24 24 23 22 22 22 21 21 20 20 19
18 19 20 21 23 24 24 23 22 22 20 22 23 22 21 22 23 23 25 27 27 27 27 28 28 27 25 27 29 30 30 29 30 30 29 29 29 29 29 30 30 30 29 26 24 24 22 23 28 28 27 29 28 28 28 26 25 23 23 23 23 24 23 21 19 19 19 20 20 20 21 22 23 24 25 24 23 23 23 22 22 22 22 21 21 20 19 18
17 17 18 20 23 24 24 23 22 22 21 23 22 21 22 23 24 25 26 27 26 27 27 25 26 26 23 24 26 28 29 29 29 28 27 27 28 28 30 30 30 30 31 29 26 26 24 23 27 28 27 28 28 28 28 27 26 24 23 24 24 24 23 22 20 20 20 20 20 20 20 21 21 22 24 24 23 23 22 22 22 22 21 21 20 20 19 18
15 15 16 20 23 24 23 23 23 22 22 22 22 22 22 23 25 26 26 27 26 27 27 24 25 26 24 23 24 28 28 26 28 28 26 27 27 27 30 30 31 31 31 30 28 27 26 23 25 29 28 28 29 28 26 26 27 26 25 25 24 22 22 21 20 21 20 20 20 20 20 21 21 22 24 24 23 23 23 23 22 22 22 21 19 19 19 18
15 15 19 22 24 24 23 23 23 22 21 22 21 22 23 24 25 26 26 27 27 27 27 25 26 26 25 25 25 27 28 26 27 27 26 26 26 27 29 30 31 31 31 31 29 28 27 23 23 28 29 28 28 26 24 25 26 27 26 26 25 23 22 21 21 21 21 20 20 20 21 21 22 24 25 25 24 24 23 23 23 22 22 21 19 19 19 18
15 16 20 23 23 23 24 23 23 22 21 21 21 22 23 24 25 26 26 27 27 27 27 26 26 26 26 27 26 27 28 27 28 27 26 27 27 26 29 30 30 31 30 30 30 28 27 24 22 26 28 26 25 26 25 25 26 25 24 24 24 23 23 22 22 21 21 21 20 20 20 21 24 26 26 26 25 24 24 23 23 23 22 21 20 19 19 18
14 17 21 23 23 23 23 23 22 21 21 21 21 22 23 24 25 26 26 27 28 28 28 27 27 26 26 27 26 27 28 27 28 27 27 28 27 26 29 30 30 31 30 30 30 28 27 25 23 23 25 24 25 28 28 28 27 27 25 24 24 23 22 22 21 21 21 21 20 21 20 21 25 26 26 27 26 24 24 24 23 23 22 21 20 20 19 19
15 18 21 23 23 22 23 22 21 21 21 22 22 23 24 24 25 25 26 28 28 28 28 28 28 27 27 27 27 27 27 27 27 27 27 28 28 28 30 30 30 31 30 29 29 28 27 27 24 22 24 25 27 29 28 28 28 28 27 26 25 24 23 21 21 21 21 21 21 21 20 22 26 26 26 27 26 24 24 24 24 23 23 21 20 20 19 19
16 18 21 24 23 22 21 21 20 21 21 22 23 24 24 24 25 25 26 27 28 28 28 28 28 28 28 28 28 28 27 27 27 27 27 28 29 29 29 30 29 30 30 28 28 28 27 26 23 22 24 26 28 29 29 29 29 28 27 27 25 25 25 23 22 22 21 21 21 21 20 22 26 26 25 26 25 24 23 23 24 24 23 22 21 20 19 18
15 15 18 22 23 22 21 21 21 21 21 22 22 23 24 24 25 25 26 26 27 27 27 27 27 27 28 28 28 28 27 26 26 28 28 28 29 29 28 29 30 29 29 28 28 28 26 24 23 22 22 23 24 26 26 27 28 27 27 28 27 26 26 24 22 22 22 21 21 21 20 22 26 27 25 25 25 24 24 23 24 24 23 21 20 20 19 18
15 16 17 20 22 22 21 21 21 21 21 21 21 22 23 24 25 26 26 26 27 27 26 27 27 27 27 28 28 28 28 26 26 27 28 28 29 29 28 28 30 29 29 28 29 28 26 25 24 22 21 21 21 22 23 24 25 26 27 28 28 27 26 24 22 22 21 21 21 21 21 23 26 27 26 25 25 25 25 23 23 24 22 21 20 20 19 18
16 18 19 19 21 21 21 21 21 21 21 21 21 22 23 23 25 26 26 27 27 27 27 27 27 27 27 27 27 26 27 27 26 27 27 26 27 28 28 28 29 28 29 29 28 29 28 26 25 24 22 22 22 23 24 24 24 24 25 27 27 27 26 25 23 21 21 21 21 21 22 22 25 27 27 26 25 25 25 24 23 23 22 21 20 20 19 19
16 18 19 19 20 20 20 21 21 21 21 21 22 23 23 23 24 25 26 27 27 27 27 27 27 27 26 26 26 25 26 27 26 26 25 25 25 26 27 29 28 28 29 28 27 28 27 24 24 25 24 23 24 24 26 26 24 24 24 25 26 26 26 25 23 22 22 21 21 23 23 21 24 27 28 27 25 25 25 24 24 23 22 21 20 20 19 19
16 17 18 18 19 19 20 20 21 21 21 21 22 23 23 23 23 24 25 26 27 27 26 26 26 26 26 26 25 25 25 25 24 24 23 24 24 25 26 28 27 27 28 28 27 28 27 23 24 25 24 24 26 25 26 26 25 25 25 24 25 26 25 25 24 24 24 22 22 24 23 22 25 28 28 27 26 25 25 24 23 22 22 21 20 20 19 19
16 16 17 18 18 18 19 20 20 20 21 21 21 22 23 23 23 24 24 25 25 26 26 25 26 26 26 26 26 24 23 23 23 22 23 23 23 24 25 26 26 26 27 27 27 26 25 23 24 25 24 25 26 26 26 25 25 25 25 25 26 26 25 26 25 25 25 24 25 25 24 24 25 27 28 27 25 24 24 23 23 22 22 21 20 20 19 19
15 16 17 17 17 17 18 19 20 21 21 21 21 22 23 23 23 24 24 24 24 24 25 25 25 26 26 26 25 23 23 23 23 22 23 23 23 24 24 24 25 25 26 27 26 26 25 23 24 25 24 23 25 26 26 25 24 24 24 25 26 26 25 26 26 26 25 25 25 24 23 23 25 25 26 25 24 24 24 23 23 23 22 21 21 20 20 19
15 16 16 16 17 18 18 19 20 20 21 21 21 22 23 23 24 23 24 24 24 24 25 24 24 24 24 24 23 23 23 24 23 23 24 24 24 24 24 24 25 25 25 26 26 26 26 24 23 24 22 21 24 25 25 25 24 23 23 25 26 25 25 26 26 26 25 25 25 23 22 24 27 27 26 25 23 24 24 24 23 22 22 21 21 20 20 19
14 15 16 16 16 17 18 18 19 20 21 22 22 23 23 23 24 23 23 24 24 24 24 24 24 24 23 23 23 23 24 24 24 24 24 24 24 24 24 24 25 25 25 25 25 25 26 25 24 23 21 21 23 24 24 24 23 21 23 25 26 25 26 26 26 27 27 26 25 24 24 27 28 27 26 25 24 24 24 24 23 22 22 21 21 21 20 19
Height
812 810 808 805 803 801 799 797 796 794 793 791 789 788 787 786 785 784 784 782 782 781 781 780 779 779 778 776 775 773 772 771 770 770 770 768 767 767 766 766 765 767 767 767 766 765 764 764 764 763 763 763 765 767 766 767 767 772 786 802 811 813 810 805 805 806 808 813 813 812 810 811 814 812 808 808 811 812 812 812 811 809 809 810 810 810 810 810
812 810 808 806 803 801 799 798 796 794 793 791 790 788 786 785 784 783 783 782 782 781 780 779 779 778 777 776 774 772 771 770 769 769 767 766 766 766 766 765 765 766 766 766 766 765 766 766 765 765 766 768 770 769 770 771 773 781 793 804 810 809 803 797 799 802 804 809 812 811 810 811 812 810 808 813 818 815 815 817 814 814 813 812 811 811 811 811
812 810 808 806 803 801 800 798 796 794 793 791 790 788 786 785 784 783 782 781 780 780 779 779 779 777 776 775 773 773 771 769 770 769 766 765 765 765 765 765 765 764 765 765 765 765 766 766 766 768 770 773 775 773 775 776 779 786 794 806 809 802 798 794 795 800 801 805 811 813 813 813 810 808 809 815 819 818 820 820 817 818 817 814 813 813 813 812
812 810 808 805 803 801 799 797 796 794 793 791 789 788 786 784 783 782 781 781 780 779 779 778 778 776 776 774 773 773 769 772 774 768 765 765 765 765 765 764 763 764 764 764 764 764 764 765 766 768 771 778 779 776 781 782 783 790 797 807 805 797 799 797 794 798 800 803 808 811 812 814 810 809 812 815 820 823 821 818 817 818 817 816 815 814 814 814
812 810 808 805 803 801 799 797 795 794 792 791 790 788 786 784 783 782 781 780 779 779 778 778 776 775 775 773 773 771 771 783 779 766 766 765 765 765 764 764 763 764 763 764 764 763 764 765 767 770 775 782 782 782 789 786 784 794 801 803 800 797 801 799 795 797 800 801 805 809 812 813 811 812 815 816 821 824 819 817 816 816 816 816 815 815 815 815
812 810 808 805 803 801 799 797 795 793 792 790 789 788 786 784 782 781 780 779 779 778 777 777 776 776 774 772 773 770 775 787 775 763 766 764 764 764 763 764 763 763 763 763 763 763 766 766 769 776 781 786 788 789 793 789 786 796 803 799 797 797 800 799 797 798 800 803 807 810 811 811 814 818 817 817 820 819 816 816 816 816 816 816 816 816 816 816
812 810 808 805 803 801 798 796 794 793 791 790 789 787 785 784 782 781 780 779 778 777 777 776 776 775 774 773 773 771 776 779 767 763 765 762 764 763 763 765 763 763 762 762 762 765 767 769 774 779 784 789 791 793 793 790 788 796 804 801 798 798 799 798 798 800 801 805 808 808 810 814 818 821 819 819 820 817 815 816 815 816 816 816 817 817 817 817
812 810 807 805 803 800 798 796 794 792 791 789 788 786 785 784 782 781 779 779 778 777 776 775 776 774 773 773 773 776 777 771 763 764 763 762 764 763 765 766 764 764 763 763 763 764 767 771 776 778 786 791 790 794 793 792 795 798 803 802 798 799 799 799 800 803 804 807 809 810 815 819 819 819 821 822 820 817 817 816 816 817 817 817 818 818 818 818
812 810 807 805 802 800 798 795 793 792 790 788 787 786 785 783 782 780 780 779 778 777 776 775 775 774 774 772 773 780 776 765 763 763 762 763 764 764 766 765 765 765 765 765 763 763 767 772 775 775 785 790 789 793 792 796 802 800 800 801 799 801 801 801 803 805 807 809 810 815 821 822 818 819 824 823 819 818 817 818 819 819 819 819 819 819 819 819
812 810 807 805 802 800 797 795 793 791 789 788 787 785 784 783 781 780 779 779 778 777 775 776 775 774 775 772 777 784 771 762 763 762 762 764 764 765 765 765 764 765 765 765 762 764 766 770 772 771 778 786 790 793 793 796 800 797 798 800 800 802 802 803 806 807 809 812 812 818 825 823 817 821 829 825 819 819 819 820 821 820 821 821 820 820 820 821
813 810 807 804 802 800 796 794 792 790 789 787 786 785 783 782 780 779 779 779 778 777 776 775 774 774 774 774 781 782 766 761 763 761 764 765 764 765 765 764 764 764 765 764 764 764 765 767 767 770 779 786 789 793 793 793 794 794 796 801 803 803 805 806 809 810 811 816 815 817 823 823 820 824 829 823 819 820 820 822 822 822 822 822 822 822 821 822
813 810 807 804 801 799 796 794 791 789 788 786 785 784 782 781 780 779 778 778 777 776 776 775 775 774 773 775 779 773 762 762 763 762 765 765 766 767 765 765 763 763 763 763 766 764 765 766 765 773 782 785 791 797 797 792 793 795 797 807 810 808 811 810 810 811 812 818 815 814 825 829 827 828 826 821 821 821 821 823 823 823 823 822 823 823 823 823
813 810 807 804 801 798 796 793 791 789 786 785 784 782 781 780 779 778 777 777 777 775 775 775 775 773 775 777 770 764 762 763 763 764 766 766 767 766 765 765 763 764 764 764 766 765 766 766 766 774 779 784 792 795 793 792 796 801 801 809 815 818 820 813 809 811 812 816 811 812 833 840 832 829 824 821 822 822 824 825 824 825 824 824 824 824 824 823
813 810 807 803 801 798 795 793 790 788 785 784 782 781 780 778 778 778 776 776 776 775 774 774 775 773 776 775 764 762 764 763 764 765 766 766 765 765 766 765 765 765 765 765 766 766 767 766 767 774 778 783 788 789 793 799 801 805 809 812 818 827 828 814 808 812 815 816 808 814 837 842 832 828 824 822 822 823 825 825 825 826 825 824 824 824 825 824
814 810 806 803 800 797 795 793 790 787 785 783 780 779 778 777 777 776 776 776 775 775 774 774 774 773 777 774 762 761 763 762 764 764 765 764 762 765 766 765 766 766 766 766 766 767 767 767 770 779 784 783 785 793 802 806 806 809 818 824 825 827 828 817 809 811 815 815 809 816 836 839 831 827 822 820 822 823 825 826 825 826 825 825 824 824 825 825
814 810 807 803 800 797 795 792 790 787 784 781 779 777 777 777 776 776 776 775 774 774 773 775 774 774 782 775 763 762 762 762 763 763 763 762 762 765 766 766 767 767 768 767 767 768 768 770 775 781 786 788 792 800 808 814 816 815 820 829 827 825 828 823 814 808 810 813 813 818 831 837 829 824 821 820 821 823 825 826 825 826 826 824 825 825 826 826
814 810 807 803 800 797 794 792 790 786 783 781 778 777 776 776 775 775 776 775 775 773 773 775 773 776 779 769 765 766 762 762 763 762 763 762 762 764 766 767 768 768 768 767 768 769 770 775 781 784 788 794 798 800 812 825 826 821 821 825 824 823 826 825 819 810 807 813 817 818 825 830 825 821 821 820 820 823 824 825 825 825 826 825 825 826 826 826
814 811 807 803 800 797 794 792 790 787 784 781 778 777 776 775 775 775 776 775 773 773 775 775 775 785 785 771 769 767 760 761 761 760 763 763 763 764 765 766 767 769 771 772 773 774 777 780 786 792 796 799 799 800 814 823 821 821 821 821 823 823 824 824 819 812 810 814 820 822 825 826 823 820 821 819 819 822 823 823 824 824 826 826 825 826 826 826
814 811 807 803 800 797 794 792 790 788 785 781 779 777 775 774 774 774 774 775 777 780 783 780 780 791 789 774 767 763 758 760 760 761 762 763 763 764 764 765 767 771 778 783 782 780 782 786 791 798 803 802 799 799 805 809 810 813 814 815 820 822 822 818 811 808 809 816 822 823 825 826 824 822 820 818 817 820 822 822 823 824 825 826 826 826 826 826
815 812 808 804 801 797 795 792 791 789 785 783 779 776 779 783 785 784 778 776 780 782 783 780 778 782 779 769 763 761 761 760 761 762 762 762 763 764 765 767 771 776 783 788 788 784 785 794 800 800 801 798 795 795 797 801 804 807 811 813 815 818 819 812 806 804 804 815 823 821 823 825 823 821 818 816 817 819 821 822 824 824 825 825 825 826 826 826
815 813 808 804 800 798 795 793 792 790 788 786 782 782 790 795 799 799 790 782 777 775 778 774 771 774 770 765 762 760 762 763 762 762 763 762 762 769 772 773 780 786 787 788 789 786 788 800 802 795 793 791 792 795 796 800 803 806 813 817 817 816 815 807 804 804 801 812 823 820 824 826 821 819 816 815 818 819 819 821 823 824 824 824 824 825 825 825
815 813 809 805 800 798 795 793 793 791 789 787 785 788 794 796 798 797 794 793 781 770 774 771 768 770 763 761 761 758 763 769 768 765 763 763 765 773 777 778 785 790 788 788 792 795 798 802 797 788 789 791 794 796 796 801 804 807 812 817 818 813 812 810 804 803 802 810 821 822 825 826 819 816 815 814 815 815 815 816 818 821 823 823 823 823 824 825
816 813 810 806 801 798 795 794 793 792 790 789 789 792 795 795 794 791 792 798 789 772 771 772 771 770 764 761 758 757 766 772 773 768 761 764 769 772 777 781 785 788 788 791 795 803 806 801 790 786 788 792 797 798 799 803 805 808 810 814 817 810 813 818 810 806 805 808 816 819 823 824 819 817 815 812 811 811 812 813 814 817 819 819 819 821 822 824
816 813 811 806 802 798 795 794 793 792 792 791 792 793 794 794 793 791 791 796 794 777 767 766 765 765 763 759 755 760 768 767 768 767 760 764 771 771 775 780 785 788 789 790 793 799 801 793 785 787 790 792 800 804 803 804 808 810 809 811 814 809 809 812 810 808 808 810 812 816 827 827 820 822 819 811 810 810 811 813 815 816 816 817 818 819 820 821
815 814 811 807 803 798 795 794 793 793 793 792 793 792 792 792 790 791 792 798 799 782 767 763 761 761 757 756 757 759 765 765 762 760 756 760 767 772 776 776 782 790 789 790 794 797 796 787 784 789 792 794 801 806 804 802 807 812 808 804 805 804 806 808 810 813 820 824 813 815 837 836 821 822 821 813 812 812 811 813 816 817 816 817 818 819 819 820
816 814 811 809 805 798 795 795 795 795 793 792 793 791 791 790 789 789 793 807 808 787 775 771 768 765 758 758 758 757 771 772 758 754 755 756 758 765 777 779 780 786 784 785 791 793 791 785 785 789 792 795 799 802 801 798 806 814 805 797 798 798 803 808 811 816 826 828 813 811 833 839 826 821 818 814 813 812 812 813 814 816 816 816 817 817 818 819
816 814 811 810 807 802 799 798 799 796 794 794 792 791 790 788 789 787 796 821 816 788 780 777 770 766 760 759 756 764 785 778 759 756 754 756 756 758 775 784 783 783 777 783 796 796 789 787 789 789 791 797 797 799 798 795 805 811 798 795 799 797 802 807 810 815 818 818 815 813 822 834 832 820 812 812 815 814 814 815 814 814 814 814 815 814 816 817
815 813 811 809 807 806 803 802 801 797 796 796 791 790 789 787 788 787 805 833 816 781 776 774 765 761 758 756 757 767 776 770 771 768 751 753 758 759 776 783 781 782 774 784 803 797 787 789 791 789 794 799 796 793 791 791 800 801 792 796 799 797 803 807 809 815 815 818 828 822 819 833 833 817 811 814 817 818 815 813 813 813 813 813 813 813 813 815
815 813 811 808 807 806 804 803 801 797 796 793 790 790 787 786 787 793 816 830 805 777 774 771 766 763 761 762 763 766 766 766 774 767 751 755 757 758 774 775 773 781 776 780 795 792 784 783 783 787 794 796 790 787 784 788 795 792 790 798 799 801 806 807 812 817 817 826 836 828 821 833 833 820 819 821 819 817 813 810 809 809 810 811 811 811 812 813
814 812 811 808 805 804 802 801 798 797 795 792 791 787 784 787 793 811 832 822 797 782 773 770 771 768 767 772 772 769 769 770 767 762 760 763 758 757 765 765 768 779 781 780 785 786 780 776 777 782 787 786 784 785 783 785 788 787 794 802 804 807 808 811 818 820 825 836 836 827 821 828 833 824 819 818 810 805 806 808 809 807 808 809 809 809 810 811
813 811 810 807 806 804 802 799 796 796 795 792 790 785 786 794 803 826 832 805 792 788 776 775 775 769 771 778 778 773 772 772 766 768 772 769 768 769 770 773 777 785 790 789 788 788 784 783 783 779 777 778 782 787 786 785 786 788 798 807 812 817 815 817 823 823 835 843 831 822 819 825 834 822 809 805 797 795 799 802 805 806 806 807 806 807 807 808
812 809 807 806 805 803 802 799 795 796 794 791 790 786 793 807 816 826 816 794 796 795 781 780 777 772 774 777 778 775 774 775 769 771 776 775 778 778 779 783 784 795 806 801 796 796 792 790 786 779 775 776 784 794 794 790 790 792 799 808 819 830 832 834 838 836 843 839 823 820 821 824 827 810 797 796 790 790 792 791 795 800 802 804 804 804 805 806
811 807 805 804 803 801 799 797 795 796 794 792 792 790 801 819 822 817 807 799 799 789 777 778 775 772 777 780 781 776 775 776 771 771 773 775 782 781 778 777 776 789 802 801 802 805 802 795 787 785 783 777 782 796 802 799 797 797 803 811 820 834 845 850 852 849 845 834 820 819 820 824 821 802 790 790 784 782 783 784 788 792 796 799 800 801 803 805
809 806 803 800 800 798 796 797 796 795 794 792 794 798 811 824 819 808 805 800 791 780 776 778 774 773 776 780 779 773 776 777 770 772 776 778 787 786 780 777 773 779 788 797 804 807 813 809 793 788 787 781 782 789 794 798 800 802 804 808 815 823 834 845 848 846 844 836 825 819 821 826 820 800 786 783 778 777 779 782 786 788 792 795 797 800 802 804
807 805 802 798 797 796 795 796 795 795 796 794 798 809 819 822 816 809 804 796 789 784 779 774 773 778 780 778 774 768 773 776 770 772 779 781 785 784 780 778 774 776 785 799 804 802 811 808 788 781 780 778 783 783 782 792 803 805 802 806 812 810 817 836 844 841 842 841 832 824 822 818 808 792 784 783 780 777 780 783 787 791 793 795 797 799 801 803
806 802 799 796 794 794 794 796 795 795 796 797 806 816 817 812 808 805 797 789 789 789 784 780 779 785 789 783 778 772 769 772 772 775 780 780 780 779 777 773 769 771 778 790 798 799 807 804 785 781 782 776 779 781 778 786 799 805 806 807 806 800 807 829 843 843 845 844 836 830 823 811 803 796 787 786 785 783 785 787 788 791 793 795 797 798 799 802
806 802 798 794 792 793 793 794 795 795 796 801 811 815 811 804 797 794 790 786 787 786 788 794 789 789 797 795 788 781 775 775 773 776 782 782 780 777 774 769 764 765 767 775 786 789 797 804 789 782 788 780 773 778 779 778 786 800 806 801 799 801 805 817 834 844 848 846 836 831 827 818 815 808 793 789 792 791 790 789 789 792 794 795 797 796 798 799
808 804 799 793 792 793 793 794 794 795 798 805 813 812 807 801 792 788 787 785 786 784 789 799 793 789 798 801 794 784 780 782 778 779 784 783 780 775 772 769 762 761 761 765 778 781 786 803 797 780 785 783 774 782 790 784 780 788 793 792 798 811 816 819 830 838 844 849 842 832 829 825 818 807 795 793 795 793 792 791 791 792 793 795 796 796 797 799
810 807 801 794 793 793 794 795 794 796 803 811 817 812 802 797 790 785 784 783 785 786 791 796 792 790 793 795 795 787 782 784 781 781 784 783 781 774 768 767 762 759 759 760 773 778 780 800 805 785 780 784 782 790 799 795 786 784 788 792 796 806 813 818 825 828 833 846 848 836 830 822 807 795 790 791 792 790 791 791 790 790 790 792 794 795 797 799
812 811 803 794 794 795 793 794 795 801 809 812 814 808 799 796 789 781 780 780 781 783 789 792 790 792 791 788 791 788 784 785 782 782 783 780 780 777 767 764 763 761 760 760 769 777 780 794 804 792 783 788 793 792 792 793 792 792 797 801 801 803 807 812 818 822 825 836 845 843 837 818 795 785 783 783 785 786 786 787 788 787 787 789 791 792 794 796
815 815 805 794 795 796 794 797 800 804 809 810 809 804 798 794 789 783 779 777 777 776 779 784 786 789 790 788 789 786 785 786 783 783 783 778 780 780 766 758 759 760 762 766 770 776 782 790 798 798 793 794 793 783 779 782 785 789 793 796 799 802 808 818 825 822 819 825 832 837 836 812 786 780 779 776 779 781 781 783 784 785 785 787 788 789 791 793
817 815 802 793 796 795 795 802 804 804 807 807 803 799 795 792 789 787 781 776 776 775 774 779 782 785 787 786 785 785 785 786 784 784 784 780 779 777 763 755 756 757 761 772 775 772 777 785 794 799 796 793 787 777 775 778 777 780 785 788 795 799 801 814 823 818 816 821 823 830 832 808 781 778 778 774 775 777 778 779 780 782 782 784 787 787 789 791
817 811 797 792 795 794 799 808 807 805 805 801 797 795 793 791 790 788 784 780 779 778 778 780 780 782 783 781 782 784 785 785 784 783 783 780 774 769 761 756 758 760 763 773 776 770 776 788 797 801 796 788 781 775 773 774 775 782 785 785 792 795 792 801 809 808 813 820 820 828 832 807 780 776 778 775 774 775 777 777 777 779 780 782 786 786 789 792
815 811 800 794 794 794 802 810 809 808 804 799 798 797 793 790 789 787 785 783 781 781 784 783 780 781 780 777 779 782 784 787 787 781 780 781 774 766 762 757 758 763 765 770 772 770 782 795 800 808 813 809 802 796 790 784 782 786 786 783 786 788 789 798 804 805 812 816 815 822 826 805 782 776 777 776 775 775 776 776 774 776 779 782 784 786 788 791
814 811 803 797 793 795 801 803 804 807 805 803 803 800 796 792 786 782 782 781 778 780 784 783 779 779 778 776 779 781 780 785 788 783 780 781 774 767 765 761 759 762 763 765 765 768 782 793 795 808 825 830 827 820 811 802 794 790 785 783 783 784 787 793 801 809 815 816 814 815 814 799 782 778 778 776 776 775 774 776 775 775 777 780 783 785 787 790
814 810 806 801 795 795 799 798 799 804 804 805 805 800 798 796 787 779 778 779 777 776 780 781 777 779 780 780 784 786 781 781 784 783 783 785 780 773 769 765 763 764 764 763 764 769 781 790 791 798 809 816 816 810 804 801 801 797 792 789 786 787 788 790 799 808 809 811 813 806 801 797 786 779 777 776 776 775 773 775 777 776 777 779 781 783 785 788
815 812 808 807 803 801 800 798 799 801 801 803 804 798 796 798 793 785 779 778 776 775 778 779 778 781 785 785 788 790 786 783 784 786 789 789 785 778 771 767 768 769 765 764 766 771 783 795 795 794 798 801 802 800 796 795 799 799 798 796 790 788 790 790 794 798 800 809 812 798 796 802 789 775 773 773 774 775 772 773 775 775 776 778 780 783 785 788
813 810 806 806 808 807 805 801 800 800 800 800 800 796 796 797 796 793 786 780 776 776 781 784 782 782 784 785 788 792 791 790 792 794 794 792 788 785 778 773 772 771 769 770 770 772 786 799 797 794 798 798 794 794 793 792 795 796 797 797 792 789 791 789 789 792 794 800 799 788 791 798 785 770 768 767 768 770 769 770 772 773 775 777 779 782 785 788
811 810 806 804 807 808 805 801 799 799 799 800 798 795 796 797 796 793 788 786 784 780 781 787 786 781 780 780 785 794 797 798 801 800 796 794 793 791 788 784 779 774 773 775 774 775 787 798 796 793 796 795 792 792 792 793 794 793 793 794 791 790 791 787 787 789 788 788 786 783 788 789 778 770 766 763 764 766 766 768 771 772 774 776 778 781 783 786
810 810 808 807 807 806 803 800 799 799 797 797 798 795 791 793 793 790 786 789 794 788 783 787 787 782 781 781 785 795 796 794 799 799 795 795 795 791 793 792 785 780 778 778 779 778 785 797 798 793 798 800 793 789 792 795 796 795 793 791 787 788 789 786 784 785 786 786 784 788 794 790 776 769 765 763 764 765 766 769 769 770 772 774 776 779 781 783
809 809 809 811 810 805 803 801 799 800 799 797 797 793 790 791 790 789 786 784 788 790 786 787 787 784 784 786 789 793 791 788 791 791 788 792 792 788 789 787 785 787 785 782 783 780 783 795 797 796 806 808 796 792 795 794 795 797 795 790 788 789 789 786 784 783 785 785 786 791 795 785 770 763 763 764 765 766 766 767 768 769 770 772 775 777 779 781
808 808 807 811 811 806 803 802 801 802 799 794 792 790 790 789 785 788 791 785 782 785 784 783 785 787 790 792 791 789 786 784 784 783 781 783 783 782 783 781 782 786 787 785 786 784 784 791 795 800 810 809 799 799 798 797 806 809 797 788 787 787 786 785 783 780 779 781 784 787 783 772 764 764 765 766 768 768 766 764 765 768 769 770 772 773 775 778
Wind_Speed
30 31 31 31 31 30 29 27 26 26 25 25 24 21 18 15 14 13 13 13 13 13 13 13 13 14 14 15 16 16 14 11 7 4 4 5 6 6 7 8 7 6 7 6 6 5 8 9 9 7 1 2 3 3 4 4 4 4 4 4 3 1 0 2 3 4 4 4 3 3 2 4 7 4 2 5 9 7 8 6 5 6 7 5 5 6 6 5
30 30 31 31 31 30 29 27 26 25 25 25 25 23 20 18 16 14 14 14 13 13 13 13 13 13 13 13 14 13 13 10 6 5 5 5 4 5 7 8 7 6 5 4 3 3 4 5 7 8 4 3 3 4 4 3 4 4 3 4 2 1 2 1 5 7 5 6 5 3 2 2 5 4 1 4 6 7 9 5 4 7 6 6 7 6 5 6
31 30 31 31 31 30 29 28 26 25 25 25 25 24 22 19 18 16 15 15 14 13 13 13 13 12 12 11 11 11 11 7 3 4 5 2 2 3 4 4 5 5 4 2 2 3 4 5 7 5 3 4 4 4 5 3 3 3 3 5 1 1 4 5 7 8 6 9 9 6 5 3 3 3 2 6 8 6 6 3 3 6 4 4 4 3 5 6
31 31 31 31 31 30 29 28 26 25 25 25 25 25 23 20 19 17 16 15 14 14 13 12 11 11 11 11 10 9 9 5 2 5 3 1 2 1 1 1 1 3 4 2 2 6 7 5 4 2 4 5 4 4 5 4 2 3 3 3 1 1 4 6 8 10 8 10 10 8 6 4 5 4 3 6 8 4 2 1 3 5 4 3 1 2 5 6
32 32 31 31 31 30 29 28 27 25 25 24 25 25 23 21 19 18 16 15 14 14 13 10 10 10 11 10 8 8 6 4 3 7 4 3 4 3 3 1 1 2 4 3 4 6 5 3 1 3 5 4 4 4 4 5 3 3 2 3 1 3 5 5 9 10 9 9 8 7 7 6 4 4 3 4 6 3 1 2 4 5 5 4 2 3 6 7
32 32 32 31 30 30 30 28 27 26 25 24 24 25 24 22 20 17 15 15 15 14 12 10 10 10 9 8 6 5 3 2 5 7 5 5 4 4 3 1 1 3 5 4 6 4 3 4 4 4 4 4 5 5 3 4 3 4 2 1 2 2 3 4 7 9 8 9 7 6 6 5 6 5 4 5 5 2 3 4 5 4 5 6 5 6 7 7
33 33 33 31 30 30 30 28 27 26 25 24 24 24 24 23 20 16 15 15 15 14 12 11 9 8 8 6 4 2 3 2 8 6 4 3 4 3 3 1 2 3 5 6 6 4 7 8 6 4 4 4 4 4 3 4 5 6 3 3 2 1 2 4 7 9 9 9 7 6 8 6 7 6 3 4 4 2 3 3 5 5 6 8 7 6 6 6
33 34 34 33 31 30 30 29 27 27 25 24 23 24 24 23 19 16 15 15 15 13 11 10 9 8 7 4 1 3 2 4 8 8 6 5 4 2 1 1 3 4 6 9 7 3 7 7 5 3 5 4 3 3 2 5 7 5 3 1 1 3 6 9 9 10 10 9 7 9 10 6 6 6 3 3 3 2 3 3 6 6 6 7 6 5 5 6
33 35 35 35 32 30 30 29 28 27 25 23 23 24 24 22 18 15 13 14 15 13 11 10 9 8 7 3 3 4 2 6 8 8 6 5 5 2 1 1 3 5 6 9 8 7 6 3 3 4 5 3 4 4 2 4 3 1 2 2 6 8 9 11 9 10 9 6 8 12 10 6 6 5 3 2 1 1 3 4 5 6 5 4 4 4 5 5
34 35 36 35 34 31 30 31 29 27 24 22 22 23 23 21 17 15 12 11 14 14 12 10 9 8 5 3 5 3 4 7 7 6 5 5 6 6 3 3 7 1 2 11 16 11 6 6 7 6 7 4 3 4 2 4 3 2 4 5 9 9 7 9 9 9 8 5 9 12 10 6 3 3 2 2 2 2 4 4 4 6 4 3 3 3 5 6
35 35 35 36 35 32 31 32 30 28 25 22 22 23 22 19 17 15 13 12 13 14 13 11 10 8 3 3 5 0 6 7 6 6 4 4 4 5 9 11 13 9 6 13 15 14 11 14 12 6 4 4 4 5 4 5 5 4 7 8 9 8 7 9 9 8 6 4 7 10 8 3 2 3 3 4 2 3 5 4 3 5 4 4 4 3 5 6
36 36 36 36 36 34 33 33 31 28 25 23 22 22 20 17 16 15 14 13 13 14 13 11 9 7 4 2 3 3 6 8 6 5 4 2 0 4 11 13 12 11 13 12 9 16 18 14 10 6 4 4 4 6 4 4 5 5 7 8 6 7 6 6 6 6 5 4 7 8 6 4 4 1 3 4 1 3 4 3 3 4 4 4 3 3 4 5
36 37 37 36 36 35 34 34 32 29 26 24 22 21 18 15 14 14 13 13 13 14 13 11 9 6 4 1 4 4 5 8 5 4 5 6 6 9 11 11 11 11 14 13 9 15 18 18 15 9 5 4 3 4 4 4 6 4 4 5 4 5 3 3 4 5 6 7 9 6 3 4 3 2 4 3 2 3 3 2 2 3 3 3 3 4 3 4
36 38 38 37 37 35 34 35 33 30 26 24 23 20 16 13 12 12 12 12 12 14 13 12 8 2 2 3 9 8 4 4 3 4 9 12 13 14 11 10 11 11 13 12 10 11 16 23 18 8 3 3 4 4 5 4 4 4 3 3 3 4 2 3 4 6 6 6 4 7 3 4 3 4 5 4 4 4 4 3 3 3 3 4 4 4 3 3
36 38 39 39 38 36 35 35 33 30 26 25 25 19 13 11 11 11 12 12 13 13 13 11 4 1 2 5 10 8 4 2 4 9 12 13 13 11 9 12 11 11 11 10 8 8 13 18 12 5 2 4 5 5 4 3 3 3 3 2 2 3 2 3 4 7 5 6 3 7 3 4 4 6 6 5 4 4 4 3 4 4 4 5 4 4 3 3
36 39 40 40 38 36 35 35 33 30 27 28 24 15 10 10 10 11 11 12 13 12 10 7 2 2 2 3 6 6 4 3 7 14 11 8 12 12 11 13 11 9 9 9 9 8 9 10 6 3 4 4 5 5 4 3 3 3 3 2 1 3 3 2 4 7 5 5 4 4 3 2 3 6 6 6 5 5 4 4 5 5 4 5 4 4 4 3
37 39 40 41 39 36 35 34 33 29 28 27 21 14 9 7 9 9 9 13 13 10 6 2 1 3 2 5 4 3 5 4 10 16 12 9 13 15 14 9 6 7 7 8 10 8 6 5 3 2 3 3 3 5 5 4 1 3 2 2 2 3 3 2 4 6 4 4 4 4 4 4 4 6 7 7 7 6 5 6 6 6 5 4 4 4 4 4
37 38 40 41 39 36 34 33 31 28 28 25 18 14 12 10 7 3 10 16 11 6 5 1 3 3 2 4 3 5 5 8 14 15 14 12 12 13 11 6 5 6 3 5 7 6 3 3 3 2 3 3 2 4 4 2 3 2 1 2 1 2 3 4 3 5 6 4 4 5 4 5 4 6 7 8 8 7 6 6 6 7 6 5 5 4 4 4
37 38 40 41 39 36 33 32 30 27 27 24 19 16 15 15 9 5 14 18 6 3 3 1 2 1 3 5 6 7 4 14 16 13 15 15 13 11 7 5 5 4 4 3 4 4 2 3 4 4 2 1 1 3 5 5 5 5 5 4 4 3 3 4 4 6 8 5 4 5 4 5 6 7 8 8 8 7 7 6 5 6 7 6 5 4 5 4
36 38 40 40 39 36 32 31 27 24 25 24 22 18 14 13 6 4 15 14 0 3 5 5 3 4 7 9 5 4 4 9 8 10 16 15 13 8 5 4 4 5 3 2 1 3 4 5 3 2 2 4 5 4 5 5 4 4 4 2 4 4 2 5 4 6 9 5 3 6 5 6 7 8 9 8 7 7 7 7 6 6 7 6 5 6 6 5
36 38 40 40 39 35 32 29 23 22 22 23 23 13 6 6 3 3 8 7 7 8 6 10 11 7 11 14 7 6 3 0 2 6 15 14 10 5 3 3 5 4 0 2 2 2 5 5 1 4 3 5 6 4 5 5 4 4 4 2 2 3 4 5 4 6 7 4 2 5 7 7 8 8 8 7 8 7 8 9 7 8 8 6 7 7 6 4
34 38 40 40 39 35 31 27 20 19 19 23 24 12 5 8 7 6 4 4 10 9 7 11 12 10 15 20 15 9 4 1 4 1 13 12 3 2 1 3 4 0 0 3 3 4 5 2 5 6 3 6 5 5 6 5 4 4 4 3 1 2 2 1 3 6 5 3 2 6 7 7 8 8 8 8 9 7 9 11 9 10 9 7 7 7 6 5
34 37 39 40 39 35 31 23 16 17 18 18 18 13 12 15 16 17 6 2 8 9 6 6 7 8 10 12 10 7 4 2 3 3 14 12 0 3 4 3 2 0 2 3 3 3 2 3 7 3 6 9 4 5 7 5 3 3 4 3 1 2 3 1 3 4 3 3 3 6 5 4 5 6 6 8 8 6 9 11 9 10 11 10 9 8 8 8
33 36 38 39 38 35 30 18 13 19 18 11 12 17 20 19 21 21 7 2 4 6 6 7 7 5 4 3 3 6 2 3 4 4 13 11 1 2 3 2 3 2 1 4 6 5 1 5 4 2 7 9 6 4 5 5 3 2 2 4 2 1 2 3 3 2 3 3 3 5 2 3 3 5 6 6 6 5 8 9 7 8 9 8 8 8 8 8
33 35 38 39 37 37 28 11 13 23 17 7 11 21 23 21 23 19 5 1 3 5 5 4 3 2 2 0 4 5 1 1 2 4 11 13 6 2 0 2 4 1 4 4 7 4 1 3 2 3 4 7 7 4 4 5 3 2 1 5 5 4 4 4 5 4 4 3 1 5 3 4 3 5 6 5 4 5 7 8 8 7 8 8 7 8 7 6
33 34 38 38 36 39 24 5 15 25 12 5 14 23 23 22 24 14 3 3 3 5 4 2 1 1 3 1 3 2 5 3 5 4 8 13 11 5 1 1 2 2 4 4 4 2 2 2 2 5 4 4 4 3 4 5 5 1 3 6 6 6 7 5 3 2 2 2 3 4 4 3 4 4 7 5 6 7 5 7 9 8 9 9 8 8 7 6
33 34 38 36 34 36 18 4 19 20 4 7 19 24 23 24 21 8 3 5 3 4 1 1 1 1 3 2 3 4 2 4 4 2 5 10 8 4 3 1 1 3 3 4 2 0 3 2 3 5 6 4 3 2 5 6 6 1 4 6 5 6 7 6 4 3 2 2 1 2 3 2 3 5 7 6 7 6 5 7 8 9 10 10 9 8 7 7
32 34 37 35 34 30 14 11 21 13 5 14 21 22 24 22 13 2 5 5 2 3 1 2 1 1 3 1 5 2 4 3 0 3 4 8 6 3 2 4 5 5 3 6 3 3 3 3 3 4 5 3 1 3 6 8 4 4 5 4 3 5 5 4 5 3 1 3 2 5 2 3 4 5 3 6 7 6 7 9 9 10 11 10 9 9 8 8
31 34 36 36 33 25 16 17 17 10 12 19 19 22 23 15 6 4 5 2 2 3 0 0 0 2 3 1 2 2 3 2 3 5 2 4 4 2 2 5 6 4 2 6 6 5 3 4 6 6 5 3 4 5 4 7 3 4 5 4 3 5 4 3 4 3 3 5 1 6 2 2 4 4 2 4 5 8 8 8 9 10 11 10 10 9 8 8
31 33 34 35 33 25 22 21 13 10 17 18 19 22 17 7 4 5 3 1 3 4 2 0 1 2 2 1 3 2 2 2 2 1 2 1 2 2 2 2 3 3 1 3 3 3 2 2 3 3 3 4 4 2 1 5 5 5 6 5 4 4 3 3 3 3 4 3 3 5 1 3 1 4 4 5 5 8 8 6 6 9 10 10 10 10 9 8
32 33 33 34 31 24 19 15 12 13 16 18 21 18 8 3 4 5 1 4 3 3 1 1 2 2 4 3 3 2 1 2 1 3 1 1 1 3 4 2 3 4 4 4 3 2 2 2 1 2 3 3 5 4 3 4 4 5 5 4 3 3 4 4 4 4 5 1 5 5 2 4 2 4 5 6 6 6 10 9 10 11 11 10 10 10 9 9
32 33 31 29 28 23 14 11 13 14 14 18 19 9 4 4 2 2 3 4 1 2 2 2 3 2 3 3 2 2 2 2 2 5 4 2 2 2 1 3 3 3 3 1 1 3 1 2 3 2 1 3 6 4 4 5 5 5 4 4 4 2 4 4 4 3 2 3 4 3 2 2 3 5 5 8 8 8 11 11 12 14 13 11 11 10 9 9
32 32 29 25 25 24 17 13 13 11 15 18 11 4 6 4 1 3 3 2 2 4 2 2 4 4 3 1 3 2 3 3 3 4 4 3 3 4 4 5 6 5 1 3 1 2 2 5 3 1 1 1 6 4 0 2 4 4 3 3 3 2 3 2 3 2 1 4 4 3 2 0 3 5 5 8 9 11 12 11 13 15 14 13 12 11 10 9
31 30 29 25 23 21 15 10 9 9 15 14 5 5 5 3 3 4 2 3 4 5 3 3 4 1 2 3 4 3 2 4 4 4 2 3 3 4 4 4 4 5 3 3 2 2 2 3 3 3 2 1 3 4 5 4 2 1 3 4 3 3 3 1 2 1 2 4 4 4 1 1 2 4 4 7 7 6 9 9 11 13 12 12 10 10 10 10
30 29 27 23 20 15 8 5 4 4 8 6 5 5 3 3 3 1 2 3 3 5 5 3 1 3 2 3 4 2 2 3 2 4 2 4 4 4 4 4 5 4 4 3 2 2 4 3 5 3 3 6 5 3 5 6 2 2 2 4 1 3 5 2 2 3 1 1 3 3 1 3 3 4 6 5 3 5 9 8 10 11 10 9 8 9 9 9
30 27 23 19 15 9 4 2 2 2 2 3 6 2 3 4 3 2 3 3 3 5 6 5 4 4 4 4 4 4 2 0 1 3 2 3 2 2 2 4 5 5 5 5 3 1 3 3 5 2 0 5 6 5 4 4 2 0 2 1 3 3 7 5 1 1 4 2 2 2 2 4 2 3 5 4 6 6 8 10 11 11 10 9 8 9 9 9
30 27 20 17 11 2 2 3 6 3 1 6 4 3 4 3 4 3 2 3 4 4 3 4 2 2 3 3 4 5 3 2 1 2 2 1 1 3 2 2 2 4 5 5 2 3 4 1 4 3 3 6 4 5 0 1 5 4 1 4 2 2 3 4 3 3 4 2 3 2 2 4 1 1 3 4 6 4 7 10 11 10 9 9 9 9 10 10
28 22 16 12 3 6 6 6 6 2 4 5 1 3 3 2 4 2 3 4 5 3 4 2 2 2 2 2 4 6 3 2 3 1 1 1 1 4 2 2 2 3 6 5 2 1 4 3 5 4 6 3 4 6 2 4 1 4 3 3 3 2 1 2 2 0 2 1 4 4 3 3 2 3 2 3 6 6 6 8 10 10 9 9 9 9 10 10
19 11 8 4 7 8 5 4 3 4 5 2 1 2 2 3 5 4 5 5 4 2 1 1 1 2 1 1 2 6 3 2 3 2 2 1 1 4 3 2 2 0 2 5 4 1 3 5 3 5 2 3 4 3 2 4 4 3 3 1 2 3 3 1 1 2 1 1 2 3 3 3 4 4 4 6 7 8 8 8 10 11 11 9 9 9 9 10
9 3 4 1 7 4 1 2 3 5 3 2 3 2 3 3 5 6 7 6 2 1 1 1 0 1 2 1 1 3 2 2 3 1 1 1 1 4 4 2 1 1 4 7 5 1 3 4 2 5 4 3 2 3 5 6 3 1 2 1 1 1 2 1 0 0 2 2 2 1 2 5 6 4 6 8 8 8 10 11 10 10 10 10 10 11 10 10
4 2 4 2 5 6 3 3 3 2 2 1 2 3 3 2 4 6 8 7 2 2 3 2 1 1 2 2 2 2 2 2 3 1 1 2 1 2 5 5 4 3 4 6 4 2 2 3 3 1 3 1 4 6 6 8 6 5 4 4 3 3 3 3 1 2 1 3 3 3 2 6 6 3 5 7 7 8 9 12 10 9 10 10 10 11 12 11
2 0 6 3 6 11 4 3 2 1 3 2 3 3 4 3 4 6 7 5 2 1 1 2 0 1 2 2 2 2 2 2 2 3 2 3 1 2 6 5 2 2 5 4 1 2 3 4 4 0 2 3 7 7 3 6 5 4 2 3 4 4 4 5 2 3 1 1 1 3 1 6 6 3 5 6 7 7 8 10 11 9 9 10 10 11 11 11
3 3 10 10 10 9 4 1 4 2 1 3 4 3 4 4 4 6 6 3 1 2 2 1 1 1 1 2 1 2 2 1 1 2 2 4 3 4 8 5 2 3 4 3 1 1 3 4 3 1 4 5 6 7 4 1 4 4 2 1 4 3 3 5 5 3 2 1 1 2 1 5 6 3 3 6 7 5 5 8 11 9 7 8 11 11 10 10
2 4 8 11 10 4 3 2 2 2 3 3 3 4 4 3 4 6 5 2 1 1 2 2 2 1 3 2 1 1 2 1 2 2 1 2 3 5 9 9 6 3 2 2 2 1 2 1 3 3 4 6 7 7 7 6 4 1 3 2 3 5 5 4 1 3 2 2 3 3 2 6 6 5 3 5 6 5 6 7 8 9 7 8 10 10 10 10
2 2 4 9 8 1 3 4 4 3 3 3 3 5 4 3 4 5 4 2 2 1 1 2 3 2 3 1 2 1 1 1 1 3 2 3 4 5 8 10 8 5 4 3 4 4 3 2 4 5 3 1 1 2 3 5 4 2 4 4 1 5 7 4 2 4 1 3 3 4 4 6 6 6 5 6 7 7 7 5 5 6 8 9 10 10 10 11
1 1 2 5 4 1 1 2 4 3 3 1 2 4 3 3 4 4 4 2 2 1 1 3 2 4 4 4 5 3 3 1 0 1 3 4 4 4 5 8 7 5 5 6 5 4 4 2 3 6 6 5 6 5 5 3 2 4 6 7 6 1 3 4 4 2 3 3 1 4 6 4 7 7 6 6 7 8 9 6 4 4 6 9 10 10 11 10
1 1 1 2 3 2 3 3 1 1 3 3 1 3 3 2 4 4 4 3 1 0 1 1 2 2 1 3 4 2 4 4 3 3 5 5 4 4 5 5 6 6 4 4 4 4 5 3 2 4 4 5 6 5 3 1 2 2 4 7 7 5 4 5 3 3 4 5 2 7 6 4 7 8 8 8 7 8 9 8 7 7 8 8 9 10 11 10
2 1 1 0 1 2 2 3 2 3 4 3 3 3 3 4 4 2 3 5 3 1 0 3 4 2 2 2 2 1 5 5 5 4 4 5 4 5 7 4 6 8 5 4 4 4 7 1 1 3 1 2 1 2 3 4 2 1 1 4 6 5 3 0 3 5 6 6 5 7 8 8 8 8 8 9 8 9 10 8 7 7 8 9 10 12 12 11
2 2 3 2 1 2 3 4 3 2 3 4 3 3 4 4 5 3 1 4 6 3 3 2 5 4 1 3 4 1 2 2 2 3 3 3 3 4 4 4 5 7 5 4 3 3 6 0 2 3 3 5 5 5 4 5 4 4 3 4 4 4 6 4 3 5 5 5 7 5 7 10 9 8 9 8 7 8 6 4 5 7 10 11 12 13 13 12
1 1 2 3 3 2 3 4 2 1 2 2 2 4 3 2 4 4 1 1 3 6 2 1 6 5 2 6 6 4 2 4 3 2 1 2 3 2 2 1 2 6 6 4 2 3 4 1 3 4 4 5 6 5 5 5 4 4 7 8 5 3 4 3 1 2 1 4 5 1 1 7 7 7 8 4 4 6 5 5 7 9 11 12 12 12 12 13
3 4 3 1 2 3 2 3 1 0 2 1 2 3 2 1 3 2 2 2 4 2 2 1 2 3 4 7 8 4 2 3 2 3 3 1 1 2 2 1 0 4 6 3 2 3 4 1 1 5 4 4 5 4 6 5 5 6 8 8 5 3 3 4 3 2 2 2 3 4 1 6 7 6 5 1 5 7 8 8 8 7 9 12 13 13 12 12
2 5 4 1 2 3 1 2 2 0 2 2 2 3 2 4 4 2 3 3 2 1 1 2 4 3 4 5 5 5 4 2 2 6 5 4 5 4 4 4 3 2 2 1 1 1 3 3 1 3 3 5 5 2 3 5 7 6 6 5 4 4 4 5 5 4 4 2 1 1 4 7 6 3 3 2 4 7 8 9 8 7 9 11 12 13 13 13
Wind_Direction
14 15 14 13 14 15 15 15 14 13 11 9 6 1 354 346 338 334 330 329 329 328 329 329 335 341 342 342 340 342 342 337 320 305 285 263 244 258 267 261 258 250 256 276 288 317 325 329 353 3 28 53 35 6 19 26 9 53 72 75 84 55 26 216 167 146 130 134 164 172 162 113 120 127 118 67 59 72 68 49 38 39 37 50 74 88 111 138
13 14 13 12 12 12 13 13 12 11 9 7 6 2 355 348 341 337 332 330 329 328 330 333 342 343 342 343 339 345 345 332 316 300 286 268 261 268 257 256 264 257 259 282 295 354 339 324 353 17 40 28 18 3 16 27 25 61 92 82 98 228 340 335 136 139 129 141 150 136 168 179 147 146 159 101 75 71 78 51 35 57 41 44 61 74 89 106
11 12 12 11 10 10 10 10 10 8 7 6 5 3 357 350 344 341 337 334 331 329 332 339 346 343 342 340 338 349 341 332 336 314 326 335 253 269 253 250 263 263 266 279 302 305 288 302 326 349 65 49 25 26 33 26 34 53 85 79 21 286 5 15 118 138 133 140 137 140 194 204 134 123 103 115 95 69 82 75 62 82 71 46 30 44 76 92
9 10 10 10 9 8 7 7 8 6 5 4 4 3 359 352 346 344 342 340 337 335 340 346 343 340 343 340 339 347 343 3 6 297 324 85 167 167 158 198 286 287 292 302 319 291 289 312 323 357 72 52 17 38 36 5 38 58 68 100 291 27 38 25 99 128 129 137 142 149 160 112 86 76 91 116 100 76 60 67 111 125 130 106 4 39 94 98
7 7 8 8 7 6 5 4 5 4 3 2 2 2 360 355 350 347 346 345 344 347 352 347 338 345 348 341 338 337 358 44 291 269 250 174 151 139 135 46 335 285 301 309 302 297 308 332 18 54 54 49 13 32 24 352 49 77 57 150 203 68 84 67 95 114 122 127 124 116 110 103 91 59 50 82 98 128 170 124 134 146 150 147 148 101 98 91
6 6 6 6 6 4 3 1 2 3 0 359 0 1 1 356 350 347 346 348 351 355 355 344 344 354 348 341 344 337 43 97 256 250 220 190 153 150 147 73 332 296 300 309 323 348 59 64 63 63 57 47 38 55 37 343 45 88 37 40 47 48 94 109 102 100 103 102 97 98 100 104 96 66 29 60 84 137 152 146 147 144 143 135 120 102 94 88
5 5 5 4 4 2 1 360 359 0 358 357 357 360 360 355 351 346 345 352 356 358 353 348 355 359 348 341 354 31 93 203 243 215 170 153 149 176 177 226 304 303 309 333 348 47 93 84 82 89 84 71 54 56 53 22 42 83 68 352 1 346 74 103 101 93 91 89 88 96 95 91 97 92 46 61 72 97 118 128 117 109 114 112 101 98 104 102
5 4 4 3 2 1 360 359 358 357 355 354 355 356 356 353 349 342 347 360 2 360 354 357 2 356 355 341 8 42 33 225 220 190 148 119 132 193 203 250 291 301 337 344 329 101 101 96 110 101 71 74 84 90 87 53 32 58 86 305 103 92 88 91 92 93 91 89 92 88 83 75 87 98 81 67 57 71 96 92 89 89 93 102 106 112 113 102
5 3 2 1 1 359 358 358 357 355 352 351 352 352 351 351 347 339 345 5 11 2 354 3 1 357 4 348 59 50 283 210 193 179 152 119 106 57 294 276 1 313 327 4 17 68 91 114 126 108 107 107 96 120 145 74 39 20 111 129 100 90 89 93 94 95 92 93 99 90 86 95 102 93 51 12 335 54 77 77 83 91 91 102 118 122 119 111
4 1 359 359 359 358 357 357 355 353 351 349 349 349 348 347 343 333 330 351 5 358 355 5 2 3 16 19 62 57 248 210 199 195 164 139 119 63 44 97 71 67 293 41 47 47 73 124 119 112 113 106 91 114 119 99 123 163 117 100 90 89 86 95 97 94 95 96 104 105 113 131 132 95 69 262 236 81 87 85 88 109 115 119 127 124 118 115
2 359 357 357 357 357 356 355 353 352 351 347 346 346 345 343 339 331 321 325 340 346 353 3 358 357 20 84 89 349 247 212 211 213 176 157 160 86 91 103 96 108 89 56 48 47 83 131 135 114 94 99 92 79 71 102 116 110 105 90 82 89 90 99 106 112 106 86 109 116 118 117 12 69 155 225 208 102 116 108 90 118 133 136 133 112 106 116
0 358 356 355 355 356 354 353 352 351 350 346 344 344 344 342 336 330 320 319 324 330 340 352 358 353 6 86 163 217 238 225 215 198 164 120 183 133 108 95 86 88 82 71 48 58 88 125 121 92 114 123 95 78 82 110 103 88 93 93 82 79 93 110 112 125 113 120 155 126 80 11 7 84 206 230 163 126 128 105 91 129 145 143 122 86 99 122
359 357 355 353 354 355 353 352 352 350 349 345 343 344 344 339 334 329 322 319 320 322 327 341 348 344 6 322 258 264 238 221 203 184 166 140 109 112 105 81 74 77 80 82 70 70 93 109 100 103 131 110 96 101 102 97 88 79 73 95 91 65 98 142 112 120 121 158 176 126 66 316 328 235 240 234 169 145 141 121 133 160 161 143 110 104 119 124
358 357 355 353 353 353 352 352 351 349 347 344 345 345 341 334 327 324 320 314 320 320 320 336 342 354 62 281 289 302 257 198 159 153 148 138 111 95 93 84 81 79 76 75 70 68 96 108 102 102 108 87 119 98 66 62 69 81 61 55 87 87 167 191 144 138 138 181 176 87 117 247 263 237 243 226 180 162 179 174 159 176 172 144 123 126 126 120
357 356 356 353 351 351 351 351 351 348 345 345 348 346 334 322 316 319 319 314 320 317 320 343 351 124 47 295 302 314 262 204 126 137 135 127 110 100 97 94 92 86 78 71 70 68 92 103 94 85 68 35 77 75 47 37 30 66 80 350 1 95 170 224 181 165 156 191 171 80 115 241 249 228 228 216 187 175 191 182 160 174 173 148 133 132 119 117
356 356 355 352 351 351 350 351 351 348 346 349 355 357 336 313 310 316 318 318 319 316 327 359 18 63 36 281 325 338 262 222 141 136 138 133 119 121 115 103 103 102 88 73 77 77 76 79 68 94 103 50 76 91 65 42 10 16 95 179 254 115 155 206 196 194 175 176 181 114 126 223 246 221 219 212 197 188 192 186 171 174 177 158 145 141 134 142
355 355 354 352 350 350 349 351 352 350 351 358 7 21 16 339 316 310 333 341 328 327 352 21 28 28 324 278 321 311 256 207 154 139 134 133 122 129 130 111 115 122 97 63 59 53 44 56 69 76 70 74 100 99 68 49 359 326 49 138 208 146 154 184 187 205 197 168 174 133 137 199 219 197 205 214 202 197 196 191 180 171 173 170 159 152 162 181
353 354 353 351 349 349 349 351 354 354 356 4 18 29 35 24 3 16 19 357 334 347 21 28 30 43 316 293 281 269 247 173 151 135 133 133 128 141 144 127 153 147 73 27 32 34 23 29 72 66 24 26 52 85 96 147 171 198 168 128 162 147 165 198 193 200 194 162 138 124 142 199 204 188 202 215 199 197 208 199 180 168 168 179 172 159 179 198
351 353 352 349 349 348 349 351 356 358 360 11 28 34 36 26 28 59 8 357 359 14 345 269 54 100 274 282 252 268 214 153 138 132 138 136 136 144 134 111 132 124 51 19 5 15 53 30 43 71 37 299 191 140 153 172 163 171 175 151 155 167 200 215 198 181 173 138 130 150 157 185 194 196 207 216 202 196 204 198 182 168 166 178 173 161 180 189
349 352 350 348 348 347 349 352 356 4 7 19 31 34 35 20 13 3 347 349 298 238 268 254 252 224 265 285 251 239 190 149 136 142 144 142 146 134 87 65 48 49 65 96 359 346 78 67 47 114 154 187 186 175 146 129 124 137 138 137 164 161 195 216 190 167 157 128 164 174 161 184 196 203 211 213 208 199 189 188 186 168 166 178 170 167 183 186
347 350 350 347 346 346 348 352 360 9 14 29 37 40 47 23 20 334 330 321 277 260 256 267 273 259 264 277 253 197 177 70 354 138 149 156 155 117 33 33 42 32 81 118 69 359 62 71 247 226 193 154 151 148 113 91 86 100 101 96 163 168 196 209 177 164 151 116 176 170 157 196 206 207 216 210 209 206 186 185 184 171 171 179 170 169 182 176
346 348 349 346 345 345 346 353 3 12 25 37 38 45 36 16 11 345 322 295 298 284 264 270 276 278 268 267 248 199 129 36 330 95 160 167 150 96 47 62 78 83 247 73 50 10 27 34 254 246 172 120 116 112 94 77 82 84 90 107 178 191 168 220 182 173 152 105 179 174 168 211 214 208 216 205 207 204 186 187 177 169 172 176 173 169 174 164
344 346 348 346 344 342 345 354 6 17 28 33 31 31 11 0 356 351 352 213 294 286 263 252 252 262 262 262 231 172 102 167 238 224 175 170 184 144 119 81 121 139 44 88 111 79 44 258 253 248 119 119 112 105 96 71 65 76 88 108 240 190 133 191 223 188 146 98 150 159 170 230 218 215 226 211 209 194 181 186 172 168 175 176 174 167 170 169
342 344 346 345 343 341 343 354 12 12 12 20 23 10 357 351 348 351 0 182 288 279 241 225 226 238 245 274 184 148 108 189 185 205 178 163 105 115 132 148 123 22 297 147 130 117 159 241 237 76 105 129 126 106 107 85 48 16 98 138 172 91 137 172 165 127 34 35 103 115 71 297 206 198 228 230 220 183 170 176 168 170 175 167 163 169 177 171
341 342 344 345 344 340 341 358 12 359 355 15 12 352 347 345 341 346 7 87 312 289 274 251 236 257 261 188 169 169 85 260 196 183 166 156 149 122 174 176 107 317 257 143 113 110 214 239 151 85 94 130 133 148 167 128 84 344 201 177 157 97 72 92 102 82 45 351 251 113 69 301 247 203 221 231 211 184 166 169 169 166 168 161 162 178 184 166
339 340 341 344 343 341 345 14 352 348 348 7 352 341 340 338 336 343 38 55 341 286 295 326 48 266 272 185 174 117 50 314 246 183 158 159 159 137 138 295 75 236 234 140 115 113 231 259 90 102 99 102 110 140 183 134 97 5 220 193 165 113 102 106 119 112 107 243 231 124 118 268 284 238 225 213 192 192 175 170 170 163 169 172 173 182 179 159
336 337 339 341 344 345 348 328 335 342 350 332 336 336 335 333 334 341 69 46 341 268 238 301 29 147 235 189 110 80 85 273 273 219 179 172 163 109 135 201 79 246 239 101 75 294 209 247 47 77 77 69 77 129 180 135 107 221 223 196 172 121 120 137 137 130 171 181 49 50 114 152 279 247 218 188 181 201 196 185 176 168 176 176 179 184 171 163
333 335 337 337 342 343 337 320 328 330 320 325 331 334 331 329 332 7 86 65 295 273 177 244 276 247 264 143 101 126 206 224 217 267 233 176 170 75 113 200 176 223 246 99 114 247 196 177 159 108 77 85 178 213 184 130 109 227 202 182 165 113 118 131 111 103 91 83 20 321 45 106 277 271 195 166 182 214 211 197 185 175 180 178 180 185 169 167
330 332 334 334 338 339 331 321 314 307 326 332 336 334 328 327 344 73 77 81 258 287 255 200 276 259 274 152 147 220 211 155 185 254 308 145 180 93 144 209 171 189 225 119 147 219 199 174 172 135 101 164 217 243 195 122 129 203 143 105 79 82 84 87 92 87 52 61 305 292 12 112 273 287 152 159 203 221 212 202 191 179 181 179 180 181 168 168
328 329 332 333 335 334 327 320 313 323 333 336 338 332 326 332 47 67 44 248 246 273 246 245 270 207 137 109 280 271 169 214 218 246 15 43 278 20 104 192 109 108 337 66 110 206 199 135 142 136 154 184 179 203 146 111 130 136 104 83 66 44 32 53 55 75 64 25 270 269 307 115 273 283 189 179 215 206 192 196 192 180 179 178 180 181 170 170
325 326 329 330 330 328 320 318 328 335 333 338 340 335 340 18 63 88 167 236 249 298 286 244 260 198 139 166 254 290 197 257 196 133 176 289 335 7 31 25 47 51 12 11 15 327 25 51 306 218 188 156 105 70 27 37 63 86 89 90 76 10 1 26 360 35 73 322 255 261 319 95 140 270 225 221 241 197 180 188 184 179 179 176 180 181 173 171
324 324 325 325 325 318 300 299 322 329 331 338 339 345 65 44 29 125 239 276 304 290 275 249 247 228 200 200 234 232 210 262 202 162 179 176 182 216 136 178 167 47 356 274 310 346 354 252 266 281 204 128 96 58 1 5 20 53 75 77 76 11 7 20 342 14 80 256 251 260 319 92 207 252 232 234 243 207 190 186 177 176 176 174 180 180 174 171
322 323 322 321 319 310 298 301 319 326 326 330 338 29 79 74 245 221 248 301 249 235 254 267 245 213 178 217 284 232 198 243 226 184 185 154 176 228 239 212 169 122 175 204 150 28 334 305 315 69 340 75 106 113 213 332 13 52 89 97 100 90 54 15 309 349 328 271 277 270 251 318 293 274 240 244 246 213 194 181 172 174 172 173 180 175 171 170
321 324 321 314 311 305 297 304 316 316 314 321 7 62 67 104 235 248 246 269 262 262 280 260 252 238 132 201 228 184 155 256 211 158 151 122 151 227 245 251 191 125 116 155 150 136 119 313 281 180 223 155 129 158 164 144 67 62 146 125 117 141 132 169 228 196 275 274 297 311 315 125 281 278 275 286 278 199 171 164 162 167 169 170 174 170 167 167
321 323 320 311 306 302 297 302 305 306 306 326 59 72 106 187 246 261 240 265 297 304 302 295 10 42 356 274 255 206 147 256 193 107 121 159 171 207 199 228 215 141 110 136 193 167 129 234 250 213 188 160 154 198 152 114 61 299 122 92 32 180 138 121 177 178 201 297 307 316 283 217 226 278 309 330 5 120 134 141 147 157 166 163 166 170 167 165
325 328 324 310 303 298 300 290 233 242 307 55 69 81 186 204 218 188 233 263 300 303 322 353 36 49 339 322 320 321 18 277 156 97 169 187 171 225 211 229 209 154 133 146 195 199 106 269 274 59 145 194 160 171 175 134 132 309 69 130 238 169 122 110 151 3 53 71 303 310 293 297 322 310 317 29 68 99 126 142 152 160 163 161 168 173 168 167
333 334 321 308 311 297 190 184 181 195 38 79 92 211 211 217 215 207 268 300 290 294 34 19 354 56 357 340 314 313 1 346 309 109 210 267 3 258 273 284 212 157 164 154 173 205 127 297 275 141 194 245 146 118 250 189 139 121 185 210 186 78 81 101 114 2 37 77 297 315 274 295 6 303 314 60 93 122 145 154 159 161 162 166 174 175 171 170
334 330 310 306 9 123 145 159 168 139 62 75 103 232 207 236 243 240 303 305 289 303 66 50 286 79 50 359 302 302 351 346 311 60 169 294 264 236 232 244 213 177 191 158 108 223 122 85 285 210 187 212 87 85 342 293 136 113 164 179 107 87 333 48 96 23 41 35 302 308 287 267 201 227 265 133 149 162 163 165 164 169 174 172 175 176 169 163
334 331 313 326 106 121 128 146 156 69 65 83 235 249 228 251 267 272 283 290 288 301 61 176 286 29 22 58 307 303 341 335 307 37 115 157 227 236 222 212 248 198 157 129 120 205 105 102 276 278 228 126 79 97 199 266 304 35 73 40 47 135 160 140 149 168 123 116 276 306 330 284 234 223 192 187 193 176 169 177 178 182 183 173 173 174 167 165
342 357 301 339 105 94 55 87 63 68 80 188 199 234 275 272 277 278 276 279 247 176 190 211 35 359 293 337 330 287 329 335 311 4 178 249 230 252 257 230 254 28 70 75 91 107 52 97 182 296 328 90 134 213 188 200 230 66 76 306 327 96 108 102 68 158 132 138 185 266 321 272 251 218 184 199 206 185 178 184 189 190 183 176 176 172 169 170
360 22 273 167 65 350 341 77 53 98 142 234 212 243 284 274 279 290 292 295 284 173 165 169 182 219 246 302 318 294 324 327 321 6 323 341 55 238 249 221 198 158 91 56 49 95 81 108 146 297 345 79 240 244 195 187 186 153 167 198 178 143 104 84 341 289 139 137 170 164 246 267 259 209 192 205 203 195 189 185 190 195 183 178 179 173 172 171
73 37 266 255 341 338 10 88 323 182 149 221 226 242 277 273 282 294 294 303 315 274 153 125 190 215 214 240 253 311 342 313 341 32 9 334 356 272 276 255 222 98 106 98 35 160 133 100 98 104 277 250 266 277 224 189 170 127 157 179 148 137 118 122 202 251 156 101 171 119 152 270 267 213 197 214 210 199 195 188 188 195 184 174 176 176 173 170
137 261 283 289 313 341 53 68 313 322 212 250 245 265 287 280 289 292 292 312 328 300 352 23 255 224 242 242 234 348 353 328 356 33 341 324 329 320 327 346 54 55 79 105 289 346 84 74 66 329 298 308 316 324 336 37 89 72 330 166 135 148 137 145 180 188 132 177 204 85 295 270 278 282 228 229 227 209 206 199 188 188 182 168 171 173 169 165
208 268 284 290 303 341 103 181 273 271 277 302 313 310 305 277 263 263 273 306 317 7 20 322 276 251 252 240 132 335 324 345 324 325 340 329 328 344 1 27 68 73 64 151 178 87 70 93 79 57 2 351 347 345 347 348 24 61 281 278 135 128 113 119 135 72 76 218 161 129 241 255 272 306 293 237 233 228 226 215 192 184 176 165 169 170 165 162
307 283 275 285 294 349 148 185 163 198 280 346 339 304 294 283 267 243 238 253 212 148 54 280 298 323 280 302 61 343 330 94 281 312 351 339 329 356 15 28 48 50 40 93 112 95 116 158 113 108 116 109 302 303 305 303 313 301 286 311 2 131 130 137 100 81 113 229 142 139 221 261 286 300 280 235 225 230 235 233 212 192 173 165 168 167 165 164
3 293 297 308 317 88 196 233 135 159 260 335 334 290 246 258 291 282 279 272 210 178 193 234 300 352 346 14 33 353 329 28 151 334 4 354 338 339 0 25 43 45 52 67 67 86 102 70 96 129 148 169 191 222 236 245 328 318 308 328 333 318 122 106 88 110 179 171 157 211 206 248 291 281 260 242 225 227 232 223 205 192 171 165 167 167 168 168
171 240 251 338 336 326 299 316 53 198 233 179 190 275 249 277 310 310 306 289 235 19 335 258 315 348 325 5 19 330 313 345 11 23 14 0 341 326 337 24 43 25 41 55 30 81 94 21 18 113 139 186 189 215 249 69 50 323 323 347 342 340 27 73 113 199 156 115 278 254 193 191 265 255 239 238 223 219 225 211 192 187 175 166 165 165 165 164
196 244 266 50 310 248 243 283 252 233 250 217 201 264 279 296 308 312 308 306 316 24 193 324 334 302 200 134 103 307 322 354 3 3 8 356 346 346 341 353 15 10 26 29 359 80 107 50 334 101 55 286 267 343 31 57 24 269 34 1 342 326 321 294 197 197 147 137 233 235 180 194 245 255 244 232 208 207 216 206 187 176 167 160 161 165 165 166
203 263 298 333 320 212 229 267 244 210 255 237 216 243 243 261 279 266 268 324 333 310 207 249 291 274 237 102 108 79 342 17 350 325 351 352 346 4 355 340 348 356 24 36 352 76 103 220 251 110 40 335 332 348 39 48 2 336 343 339 327 269 248 240 209 190 168 198 241 218 190 221 241 252 254 240 205 201 200 173 157 163 167 169 170 171 170 170
171 227 300 1 340 271 269 288 271 189 276 246 226 253 229 217 262 270 224 101 330 313 312 281 272 266 56 71 85 99 176 166 169 252 331 18 353 355 357 300 320 337 0 26 344 34 82 214 239 90 53 331 317 337 14 44 37 345 327 320 329 332 308 315 312 181 181 282 288 70 178 262 259 249 261 266 174 170 159 163 179 179 176 175 174 175 174 172
240 271 282 2 314 286 294 311 335 48 292 287 215 251 264 242 254 290 311 214 189 254 310 9 297 310 43 74 92 116 184 146 154 240 230 184 238 254 258 235 299 339 341 354 345 21 74 146 306 67 63 291 291 337 350 8 26 352 325 309 312 347 336 306 285 232 212 282 340 55 84 263 258 252 270 313 143 166 181 190 194 190 181 177 178 180 177 173
274 288 277 178 259 289 299 314 341 135 238 241 227 238 245 258 273 349 329 282 142 124 253 137 115 68 27 50 92 144 175 160 238 254 242 228 240 238 235 244 236 228 263 320 2 358 107 113 100 89 98 270 280 352 17 27 22 337 290 249 243 272 288 292 301 281 232 190 114 171 219 237 247 260 271 220 169 182 200 201 194 190 187 184 184 181 178 176